Weather History for Boulder City, NV

Change the Weather History Date:

Tuesday, November 5, 2013

  Actual Average (KLAS) Record (KLAS)
Temperature  
Mean Temperature 54 °F 61 °F  
Max Temperature 60 °F 72 °F 84 °F (1980)
Min Temperature 48 °F 51 °F 28 °F (1940)
Degree Days  
Heating Degree Days 11 5  
Month to date heating degree days 22  
Since 1 July heating degree days 61  
Cooling Degree Days 0 1  
Month to date cooling degree days 6  
Year to date cooling degree days 3562  
Growing Degree Days 4 (Base 50)    
Moisture  
Dew Point 16 °F    
Average Humidity 24    
Maximum Humidity 40    
Minimum Humidity 13    
Precipitation  
Precipitation 0.00 in 0.02 in 0.88 in (1960)
Month to date precipitation 0.06  
Year to date precipitation 3.39  
Snow  
Snow 0.00 in 0.00 in 0.00 in ()
Month to date snowfall 0.0  
Since 1 July snowfall 0.0  
Since 1 September snowfall 0.0  
Snow Depth -    
Sea Level Pressure  
Sea Level Pressure 30.20 in    
Wind  
Wind Speed 13 mph (North)    
Max Wind Speed 22 mph    
Max Gust Speed 30 mph    
Visibility 10 miles    
Events      
T = Trace of Precipitation, MM = Missing Value Source: NWS Daily Summary

Daily Weather History Graph

Daily Weather History Graph

Search for Another Location

Airport:

Trip Planner

Search our weather history database for the weather conditions in past years. The results will help you decide how hot, cold, wet, or windy it might be!

Date:

Astronomy

Nov. 05, 2013 Rise Set
Actual Time 6:06 AM PST 4:39 PM PST
Civil Twilight 5:39 AM PST 5:06 PM PST
Nautical Twilight 5:08 AM PST 5:36 PM PST
Astronomical Twilight 4:38 AM PST 6:06 PM PST
Moon 8:22 AM PST (11/5) 6:47 PM PST (11/5)
Length of Visible Light 11h 26m
Length of Day
10h 33m
Waxing Crescent, 7% of the Moon is Illuminated
Nov 5
Waxing Crescent
Nov 9
First Quarter
Nov 17
Full
Nov 25
Last Quarter
Dec 2
New

Hourly Weather History & Observations

Time (PST) Temp. Dew Point Humidity Pressure Visibility Wind Dir Wind Speed Gust Speed Precip Events Conditions
12:15 AM 51.8 °F 23.0 °F 33% 30.04 in 10.0 mi NNE 13.8 mph 21.9 mph N/A   Clear
12:35 AM 51.8 °F 23.0 °F 33% 30.05 in 10.0 mi NNE 15.0 mph - N/A   Clear
12:55 AM 51.8 °F 23.0 °F 33% 30.06 in 10.0 mi North 12.7 mph 19.6 mph N/A   Clear
1:15 AM 51.8 °F 23.0 °F 33% 30.07 in 10.0 mi North 17.3 mph - N/A   Clear
1:35 AM 51.8 °F 23.0 °F 33% 30.07 in 10.0 mi North 15.0 mph - N/A   Clear
1:55 AM 51.8 °F 23.0 °F 33% 30.07 in 10.0 mi North 16.1 mph 25.3 mph N/A   Clear
2:15 AM 50.0 °F 23.0 °F 35% 30.08 in 10.0 mi North 15.0 mph - N/A   Clear
2:35 AM 50.0 °F 23.0 °F 35% 30.09 in 10.0 mi North 10.4 mph 17.3 mph N/A   Clear
2:55 AM 48.2 °F 24.8 °F 40% 30.09 in 10.0 mi North 10.4 mph - N/A   Clear
3:15 AM 48.2 °F 23.0 °F 37% 30.10 in 10.0 mi NNW 13.8 mph - N/A   Clear
3:35 AM 48.2 °F 21.2 °F 34% 30.11 in 10.0 mi NNW 8.1 mph - N/A   Clear
3:55 AM 48.2 °F 21.2 °F 34% 30.11 in 10.0 mi North - - N/A   Clear
4:15 AM 48.2 °F 21.2 °F 34% 30.12 in 10.0 mi North 11.5 mph 18.4 mph N/A   Clear
4:35 AM 48.2 °F 19.4 °F 32% 30.13 in 10.0 mi North 10.4 mph - N/A   Clear
4:55 AM 48.2 °F 19.4 °F 32% 30.13 in 10.0 mi North 9.2 mph 16.1 mph N/A   Clear
5:15 AM 48.2 °F 19.4 °F 32% 30.14 in 10.0 mi NNW 10.4 mph 16.1 mph N/A   Clear
5:35 AM 48.2 °F 19.4 °F 32% 30.14 in 10.0 mi NNW 15.0 mph - N/A   Clear
5:55 AM 48.2 °F 17.6 °F 30% 30.15 in 10.0 mi North 11.5 mph 19.6 mph N/A   Clear
6:15 AM 48.2 °F 17.6 °F 30% 30.17 in 10.0 mi NNW 10.4 mph - N/A   Clear
6:35 AM 48.2 °F 17.6 °F 30% 30.17 in 10.0 mi North 15.0 mph - N/A   Clear
6:55 AM 48.2 °F 15.8 °F 27% 30.18 in 10.0 mi North 13.8 mph - N/A   Clear
7:15 AM 50.0 °F 15.8 °F 26% 30.20 in 10.0 mi North 17.3 mph - N/A   Clear
7:35 AM 51.8 °F 15.8 °F 24% 30.21 in 10.0 mi North 12.7 mph 20.7 mph N/A   Clear
7:55 AM 51.8 °F 15.8 °F 24% 30.22 in 10.0 mi North 12.7 mph 20.7 mph N/A   Clear
8:15 AM 51.8 °F 15.8 °F 24% 30.22 in 10.0 mi North 16.1 mph 25.3 mph N/A   Clear
8:35 AM 53.6 °F 15.8 °F 22% 30.23 in 10.0 mi North 20.7 mph 26.5 mph N/A   Clear
8:55 AM 53.6 °F 15.8 °F 22% 30.23 in 10.0 mi North 17.3 mph 26.5 mph N/A   Clear
9:15 AM 53.6 °F 15.8 °F 22% 30.24 in 10.0 mi North 21.9 mph - N/A   Clear
9:35 AM 55.4 °F 15.8 °F 21% 30.25 in 10.0 mi North 15.0 mph 24.2 mph N/A   Clear
9:55 AM 55.4 °F 15.8 °F 21% 30.25 in 10.0 mi NNW 15.0 mph 23.0 mph N/A   Clear
10:15 AM 57.2 °F 15.8 °F 20% 30.25 in 10.0 mi NNE 17.3 mph 23.0 mph N/A   Clear
10:35 AM 57.2 °F 14.0 °F 18% 30.24 in 10.0 mi NNE 21.9 mph 29.9 mph N/A   Clear
10:55 AM 57.2 °F 14.0 °F 18% 30.24 in 10.0 mi NNE 18.4 mph 26.5 mph N/A   Clear
11:15 AM 59.0 °F 12.2 °F 16% 30.23 in 10.0 mi NNE 19.6 mph 28.8 mph N/A   Clear
11:35 AM 59.0 °F 12.2 °F 16% 30.22 in 10.0 mi NNE 21.9 mph 28.8 mph N/A   Clear
11:55 AM 59.0 °F 8.6 °F 14% 30.22 in 10.0 mi North 18.4 mph 24.2 mph N/A   Clear
12:15 PM 59.0 °F 8.6 °F 14% 30.21 in 10.0 mi North 20.7 mph - N/A   Clear
12:35 PM 59.0 °F 8.6 °F 14% 30.20 in 10.0 mi North 17.3 mph - N/A   Clear
12:55 PM 59.0 °F 8.6 °F 14% 30.20 in 10.0 mi NNE 13.8 mph 20.7 mph N/A   Clear
1:15 PM 60.8 °F 10.4 °F 14% 30.20 in 10.0 mi North 16.1 mph - N/A   Clear
1:35 PM 60.8 °F 10.4 °F 14% 30.20 in 10.0 mi North 15.0 mph 21.9 mph N/A   Clear
1:55 PM 60.8 °F 8.6 °F 13% 30.20 in 10.0 mi NNW 17.3 mph 26.5 mph N/A   Clear
2:15 PM 60.8 °F 8.6 °F 13% 30.21 in 10.0 mi North 19.6 mph - N/A   Clear
2:35 PM 60.8 °F 10.4 °F 14% 30.20 in 10.0 mi NNE 15.0 mph - N/A   Clear
2:55 PM 60.8 °F 10.4 °F 14% 30.20 in 10.0 mi NNE 16.1 mph 24.2 mph N/A   Clear
3:15 PM 60.8 °F 10.4 °F 14% 30.21 in 10.0 mi North 11.5 mph - N/A   Clear
3:35 PM 59.0 °F 8.6 °F 14% 30.21 in 10.0 mi NE 15.0 mph - N/A   Clear
3:55 PM 59.0 °F 10.4 °F 15% 30.22 in 10.0 mi NNE 6.9 mph 15.0 mph N/A   Clear
4:15 PM 59.0 °F 8.6 °F 14% 30.21 in 10.0 mi North 13.8 mph - N/A   Clear
4:35 PM 57.2 °F 10.4 °F 16% 30.22 in 10.0 mi NNE 6.9 mph 15.0 mph N/A   Clear
4:55 PM 57.2 °F 10.4 °F 16% 30.23 in 10.0 mi NNE 6.9 mph - N/A   Clear
5:15 PM 55.4 °F 10.4 °F 17% 30.23 in 10.0 mi North 5.8 mph - N/A   Clear
5:35 PM 55.4 °F 10.4 °F 17% 30.23 in 10.0 mi North 8.1 mph - N/A   Clear
5:55 PM 55.4 °F 10.4 °F 17% 30.24 in 10.0 mi North 10.4 mph - N/A   Clear
6:15 PM 55.4 °F 10.4 °F 17% 30.24 in 10.0 mi NNE 6.9 mph - N/A   Clear
6:35 PM 51.8 °F 14.0 °F 22% 30.24 in 10.0 mi NE 3.5 mph - N/A   Clear
6:55 PM 48.2 °F 17.6 °F 30% 30.25 in 10.0 mi Calm Calm - N/A   Clear
7:15 PM 48.2 °F 19.4 °F 32% 30.26 in 10.0 mi Calm Calm - N/A   Clear
7:35 PM 50.0 °F 21.2 °F 32% 30.26 in 10.0 mi Calm Calm - N/A   Clear
7:55 PM 50.0 °F 19.4 °F 30% 30.27 in 10.0 mi Calm Calm - N/A   Clear
8:15 PM 50.0 °F 19.4 °F 30% 30.28 in 10.0 mi Calm Calm - N/A   Clear
8:35 PM 50.0 °F 19.4 °F 30% 30.27 in 10.0 mi NE 4.6 mph - N/A   Clear
8:55 PM 48.2 °F 21.2 °F 34% 30.28 in 10.0 mi NNE 8.1 mph - N/A   Clear
9:15 PM 50.0 °F 17.6 °F 28% 30.28 in 10.0 mi NNE 9.2 mph - N/A   Clear
9:35 PM 50.0 °F 17.6 °F 28% 30.29 in 10.0 mi North 9.2 mph - N/A   Clear
9:55 PM 51.8 °F 17.6 °F 26% 30.29 in 10.0 mi North 9.2 mph - N/A   Clear
10:15 PM 51.8 °F 15.8 °F 24% 30.29 in 10.0 mi NNE 9.2 mph - N/A   Clear
10:35 PM 50.0 °F 15.8 °F 26% 30.29 in 10.0 mi North 9.2 mph - N/A   Clear
10:55 PM 50.0 °F 14.0 °F 24% 30.30 in 10.0 mi North 8.1 mph - N/A   Clear
11:15 PM 48.2 °F 15.8 °F 27% 30.30 in 10.0 mi NNE 4.6 mph - N/A   Clear
11:55 PM 48.2 °F 14.0 °F 25% 30.31 in 10.0 mi WSW 3.5 mph - N/A   Clear